Starlink 31115

operational
NORAD ID: 58729 Int'l Des: 2024-005 Owner: SPXS Country: US Constellation: starlink
LEOCIRCULAR

About Starlink 31115

Description loading...

Live Position

Loading 3D Globe...

Upcoming Passes

Altitude History

Altitude vs Time

uPlot chart will show altitude changes over time

Two-Line Element Set

1 58729U 24005B 25303.77513378 .00000077 00000-0 20763-4 0 9992
2 58729 43.0032 207.1500 0001136 270.0483 90.0230 15.02537613100878
Epoch: Oct 30, 2025 • Age: 8 hours

Current Status

Altitude 561.9 km
Velocity 7.58 km/s
Sub-Earth Point -15.87°S, 110.92°E
Launch Date Jan 7, 2024
Age 1.8 years
Type internet

Technical Details

Classification Payload
Mass 730.00 kg
Dry Mass 700.00 kg
Total Mass 730.00 kg
Length 0.30 m
Diameter 4.10 m
Span 29.00 m
Shape Box + pan
Manufacturer SPXS
Bus Type Starlink V2M
Phase Status In Orbit
Owner/State SPXS/US

Large Constellations

Loading constellations...